This is the latest recevied weather packets stored in our database for station/object W8KJR. If no packets are shown the sender has not sent any weather packets the latest 10 day(s).
| Time | Temp. | Humidity | Pressure | Rain* | Wind** | Luminosity | Snow |
|---|---|---|---|---|---|---|---|
| 1778011801 | 11.11° C | 98% | 1006.9 hPa | 1.27 mm | - | - | - |
| 1778010897 | 11.67° C | 98% | 1007 hPa | 1.27 mm | - | - | - |
| 1778009998 | 11.67° C | 98% | 1007.4 hPa | 3.05 mm | - | - | - |
| 1778009097 | 11.67° C | 97% | 1007.6 hPa | 3.05 mm | - | - | - |
| 1778008196 | 11.67° C | 96% | 1008 hPa | 1.78 mm | - | - | - |
| 1778007295 | 11.67° C | 96% | 1007.8 hPa | 1.78 mm | - | - | - |
| 1778006391 | 11.67° C | 96% | 1007.6 hPa | 1.78 mm | - | - | - |
| 1778005488 | 11.67° C | 95% | 1007.4 hPa | 1.27 mm | - | - | - |
| 1778004584 | 11.67° C | 94% | 1007.3 hPa | 1.27 mm | - | - | - |
| 1778003679 | 12.22° C | 94% | 1007.4 hPa | 3.05 mm | - | - | - |
| 1778002775 | 12.78° C | 94% | 1007.5 hPa | 3.56 mm | - | - | - |
| 1778001873 | 13.33° C | 91% | 1007.6 hPa | 1.78 mm | - | - | - |
| 1778000972 | 14.44° C | 87% | 1007.2 hPa | 0 mm | - | - | - |
| 1778000066 | 15° C | 80% | 1007.5 hPa | 0 mm | - | - | - |
| 1777999162 | 15° C | 81% | 1007.6 hPa | 0 mm | - | - | - |
| 1777998261 | 15.56° C | 80% | 1007.5 hPa | 0 mm | - | - | - |
| 1777997358 | 15.56° C | 79% | 1007.5 hPa | 0 mm | - | - | - |
| 1777996454 | 15.56° C | 78% | 1007.2 hPa | 0 mm | - | - | - |
| 1777995550 | 15.56° C | 77% | 1007.3 hPa | 0 mm | - | - | - |
| 1777994647 | 16.11° C | 78% | 1007.3 hPa | 0 mm | - | - | - |
| 1777993747 | 16.11° C | 77% | 1007 hPa | 0 mm | - | - | - |
| 1777992842 | 16.67° C | 76% | 1006.8 hPa | 0 mm | - | - | - |
| 1777991941 | 17.22° C | 74% | 1006.4 hPa | 0 mm | - | - | - |
| 1777991063 | 17.78° C | 71% | 1006 hPa | 0 mm | - | - | - |
| 1777990135 | 17.78° C | 72% | 1005.2 hPa | 0 mm | - | - | - |
* Rain latest hour (hover to see other rain measurements)
** Current wind speed in m/s (hover to see current wind gust speed)